Regional Weather Roundup
Issued by NWS

Home | Current Version | Previous Version | Graphics & Text | Print | Product List | Glossary On
Versions: 1 2 3 4 5 6 7 8 9 10 11 12 13 14 15 16 17 18 19 20 21 22 23 24 25 26 27
000
ASUS45 KBOI 161910
RWRID

IDAHO REGIONAL WEATHER ROUNDUP
NATIONAL WEATHER SERVICE BOISE ID
100 PM MDT WED AUG 16 2017

NOTE: "FAIR" INDICATES FEW OR NO CLOUDS BELOW 12000 FEET
WITH NO SIGNIFICANT WEATHER AND/OR OBSTRUCTIONS TO VISIBILITY

IDZ012-014-162000-
SOUTHWEST IDAHO


CITY           SKY/WX    TMP DP  RH WIND       PRES   REMARKS
BOISE          SUNNY     80  42  25 W8        30.02F
CALDWELL       SUNNY     81  44  27 W6        30.02F
MOUNTAIN HOME  SUNNY     83  40  21 N7        30.02F
$$

IDZ016-017-162000-
SOUTHCENTRAL IDAHO


CITY           SKY/WX    TMP DP  RH WIND       PRES   REMARKS
BURLEY         SUNNY     78  41  26 W6        30.06F
JEROME         MOSUNNY   75  45  34 SW6       30.07F
TWIN FALLS     MOSUNNY   77  43  29 W8        30.08S
$$

IDZ019>023-162000-
SOUTHEAST IDAHO


CITY           SKY/WX    TMP DP  RH WIND       PRES   REMARKS
IDAHO FALLS    MOSUNNY   78  38  23 SW14      30.10F
POCATELLO      SUNNY     82  34  17 W8        30.10S
REXBURG        SUNNY     75  36  24 SW9       30.11F
$$

IDZ006-010-011-018-031-032-162000-
CENTRAL IDAHO MOUNTAINS


CITY           SKY/WX    TMP DP  RH WIND       PRES   REMARKS
MCCALL         SUNNY     74  34  23 CALM      30.10S
HAILEY         MOSUNNY   73  46  38 SE12      30.13F
STANLEY          N/A     73  32  22 VRB5      30.18F
SALMON         SUNNY     74  39  28 CALM      30.04F
CHALLIS        SUNNY     75  37  25 VRB5      30.09F
$$

IDZ002-004-006-007-026-162000-
NORTHERN IDAHO


CITY           SKY/WX    TMP DP  RH WIND       PRES   REMARKS
LEWISTON       SUNNY     80  39  23 VRB3      30.00F
LOWELL           N/A     80  43  26 S3        29.99F
COEUR D`ALENE  SUNNY     76  43  30 CALM      30.03F
MULLAN PASS    SUNNY     64  34  32 MISG      30.17S
$$




USA.gov is the U.S. government's official web portal to all federal, state and local government web resources and services.